Swift Arrow — WAFK — position and weather

sailwx.info

Track history (hours):
 
Tides and Currents Weather Stations Pressure Air Temp Water Temp Dewpoint Dewpoint Depression Visibility Wind Speed Wind Dir Waves Ship Positions

Swift Arrow

Owner: ARROW LAUNCH SERVICE INC, Port Angeles, WA. More information available from US FCC via Universal Licensing System and Coast Guard Vessel Documentation Center.

Last reported at 2014-Oct-25 20:23 UTC. Time now 2014-Oct-26 06:04 UTC.
Position N 47°34' W 122°21'.

Type: Port tender. MMSI: 369021000.

Date/timePositionNaut miles runAvg speedWind from/ knotsBaromVisibWave heightAir tempDewpointWater temp
2014-Oct-25 20:23N 47°34' W 122°21'2 2.2
2014-Oct-25 19:34N 47°36' W 122°22'0 0.2
2014-Oct-25 18:33N 47°36' W 122°22'2 1.9
2014-Oct-25 17:33N 47°37' W 122°24'0 0.1
2014-Oct-25 16:33N 47°37' W 122°24'4 3.8
2014-Oct-25 15:33N 47°34' W 122°21'1 0.8
2014-Oct-25 14:33N 47°35' W 122°22'1 0.8
2014-Oct-25 13:33N 47°34' W 122°21'0 0.0
2014-Oct-25 01:14N 47°34' W 122°21'3 4.9
2014-Oct-25 00:33N 47°32' W 122°25'1716.6
2014-Oct-24 23:33N 47°16' W 122°26'0 0.1
2014-Oct-24 19:33N 47°15' W 122°26'4 4.1
2014-Oct-24 18:34N 47°18' W 122°30'3 3.1
2014-Oct-24 17:33N 47°16' W 122°27'1 0.5
2014-Oct-24 16:33N 47°17' W 122°26'0 0.0
2014-Oct-24 00:33N 47°17' W 122°26'0 0.2
2014-Oct-23 23:33N 47°17' W 122°26'1 1.2
2014-Oct-23 22:33N 47°16' W 122°26'1 1.3
2014-Oct-23 21:31N 47°17' W 122°26'1 0.5
2014-Oct-23 20:33N 47°17' W 122°27'2 0.1
2014-Oct-22 16:05N 47°15' W 122°26'2 4.2
2014-Oct-22 15:33N 47°17' W 122°25'2 0.1
2014-Oct-21 21:10N 47°15' W 122°26'4 7.0
2014-Oct-21 20:33N 47°19' W 122°30'5 4.8
2014-Oct-21 19:33N 47°17' W 122°23'1 0.4
2014-Oct-21 17:26N 47°17' W 122°24'2 0.1
2014-Oct-20 18:21N 47°15' W 122°26'2 2.5
2014-Oct-20 17:33N 47°17' W 122°25'0 0.1
2014-Oct-20 16:33N 47°17' W 122°25'2 0.3
2014-Oct-20 10:33N 47°15' W 122°26'2 0.4
2014-Oct-20 04:29N 47°17' W 122°25'2 0.1
2014-Oct-19 13:33N 47°16' W 122°26'0 0.2
2014-Oct-19 12:33N 47°16' W 122°26'0 0.0
2014-Oct-19 11:33N 47°16' W 122°26'0 0.0
2014-Oct-19 10:33N 47°16' W 122°26'1 0.0
2014-Oct-18 09:33N 47°15' W 122°26'1 1.4
2014-Oct-18 08:29N 47°16' W 122°25'1 0.0
2014-Oct-16 19:33N 47°16' W 122°26'4 3.7
2014-Oct-16 18:33N 47°18' W 122°30'3 3.1
2014-Oct-16 17:33N 47°17' W 122°26'3 2.9
2014-Oct-16 16:34N 47°18' W 122°30'4 4.1
2014-Oct-16 15:33N 47°15' W 122°26'0 0.0
2014-Oct-16 08:15N 47°15' W 122°26'1 2.0
2014-Oct-16 07:33N 47°16' W 122°27'1 0.2
2014-Oct-16 01:25N 47°15' W 122°26'1 1.4
2014-Oct-16 00:33N 47°16' W 122°25'1 1.1
2014-Oct-15 23:33N 47°16' W 122°26'  
Track history (hours):
 
Tides and Currents Weather Stations Pressure Air Temp Water Temp Dewpoint Dewpoint Depression Visibility Wind Speed Wind Dir Waves Ship Positions

Swift Arrow

Owner: ARROW LAUNCH SERVICE INC, Port Angeles, WA. More information available from US FCC via Universal Licensing System and Coast Guard Vessel Documentation Center.

Last reported at 2014-Oct-25 20:23 UTC. Time now 2014-Oct-26 06:04 UTC.
Position N 47°34' W 122°21'.

Type: Port tender. MMSI: 369021000.

Date/timePositionNaut miles runAvg speedWind from/ knotsBaromVisibWave heightAir tempDewpointWater temp
2014-Oct-25 20:23N 47°34' W 122°21'2 2.2
2014-Oct-25 19:34N 47°36' W 122°22'0 0.2
2014-Oct-25 18:33N 47°36' W 122°22'2 1.9
2014-Oct-25 17:33N 47°37' W 122°24'0 0.1
2014-Oct-25 16:33N 47°37' W 122°24'4 3.8
2014-Oct-25 15:33N 47°34' W 122°21'1 0.8
2014-Oct-25 14:33N 47°35' W 122°22'1 0.8
2014-Oct-25 13:33N 47°34' W 122°21'0 0.0
2014-Oct-25 01:14N 47°34' W 122°21'3 4.9
2014-Oct-25 00:33N 47°32' W 122°25'1716.6
2014-Oct-24 23:33N 47°16' W 122°26'0 0.1
2014-Oct-24 19:33N 47°15' W 122°26'4 4.1
2014-Oct-24 18:34N 47°18' W 122°30'3 3.1
2014-Oct-24 17:33N 47°16' W 122°27'1 0.5
2014-Oct-24 16:33N 47°17' W 122°26'0 0.0
2014-Oct-24 00:33N 47°17' W 122°26'0 0.2
2014-Oct-23 23:33N 47°17' W 122°26'1 1.2
2014-Oct-23 22:33N 47°16' W 122°26'1 1.3
2014-Oct-23 21:31N 47°17' W 122°26'1 0.5
2014-Oct-23 20:33N 47°17' W 122°27'2 0.1
2014-Oct-22 16:05N 47°15' W 122°26'2 4.2
2014-Oct-22 15:33N 47°17' W 122°25'2 0.1
2014-Oct-21 21:10N 47°15' W 122°26'4 7.0
2014-Oct-21 20:33N 47°19' W 122°30'5 4.8
2014-Oct-21 19:33N 47°17' W 122°23'1 0.4
2014-Oct-21 17:26N 47°17' W 122°24'2 0.1
2014-Oct-20 18:21N 47°15' W 122°26'2 2.5
2014-Oct-20 17:33N 47°17' W 122°25'0 0.1
2014-Oct-20 16:33N 47°17' W 122°25'2 0.3
2014-Oct-20 10:33N 47°15' W 122°26'2 0.4
2014-Oct-20 04:29N 47°17' W 122°25'2 0.1
2014-Oct-19 13:33N 47°16' W 122°26'0 0.2
2014-Oct-19 12:33N 47°16' W 122°26'0 0.0
2014-Oct-19 11:33N 47°16' W 122°26'0 0.0
2014-Oct-19 10:33N 47°16' W 122°26'1 0.0
2014-Oct-18 09:33N 47°15' W 122°26'1 1.4
2014-Oct-18 08:29N 47°16' W 122°25'1 0.0
2014-Oct-16 19:33N 47°16' W 122°26'4 3.7
2014-Oct-16 18:33N 47°18' W 122°30'3 3.1
2014-Oct-16 17:33N 47°17' W 122°26'3 2.9
2014-Oct-16 16:34N 47°18' W 122°30'4 4.1
2014-Oct-16 15:33N 47°15' W 122°26'0 0.0
2014-Oct-16 08:15N 47°15' W 122°26'1 2.0
2014-Oct-16 07:33N 47°16' W 122°27'1 0.2
2014-Oct-16 01:25N 47°15' W 122°26'1 1.4
2014-Oct-16 00:33N 47°16' W 122°25'1 1.1
2014-Oct-15 23:33N 47°16' W 122°26'  

Dump ship's entire track history